{"data":{"norad_id":60185,"epoch":"2026-09-21T01:42:31.369824Z","epoch_age_seconds":131875,"freshness":"FRESH","line1":"1 60185U 24124C   26264.07119641  .00002930  00000+0  29036-4 0  9999","line2":"2 60185  53.1570 277.8964 0000763 355.3273   4.7738 15.69702171127222","mean_motion":15.69702171,"eccentricity":7.63e-5,"inclination_deg":53.157,"raan_deg":277.8964,"arg_perigee_deg":355.3273,"mean_anomaly_deg":4.7738,"bstar":2.9036e-5,"rev_number":12722,"period_min":91.73714775986,"perigee_km":359.23505340056,"apogee_km":360.26325482767,"semimajor_km":6737.8861541141,"source":"CELESTRAK","updated_at":"2026-09-22T09:00:49.181897Z"}}